Beckley, WV

9:27 AM EST on December 17, 2017 (GMT -0500)
Raleigh County Memorial

Weather History for KBKW - March, 2013

Change the Weather History Date:

Monday, March 4, 2013

  Actual Average Record
Temperature  
Mean Temperature 28 °F 38 °F  
Max Temperature 38 °F 48 °F 78 °F (1976)
Min Temperature 18 °F 29 °F -5 °F (1943)
Degree Days  
Heating Degree Days 37 27  
Month to date heating degree days 156 108  
Since 1 July heating degree days 3970 4109  
Cooling Degree Days 0 0  
Month to date cooling degree days 0 0  
Year to date cooling degree days 0 0  
Moisture  
Dew Point 12 °F    
Average Humidity 58    
Maximum Humidity 84    
Minimum Humidity 32    
Precipitation  
Precipitation T in 0.10 in 1.91 in (2008)
Month to date precipitation 0.05 0.43  
Year to date precipitation 6.24 6.00  
Snow  
Snow 0.10 in - - ()
Month to date snowfall 5.3  
Since 1 September snowfall 61.2  
Snow Depth 4.00 in    
Sea Level Pressure  
Sea Level Pressure 30.12 in    
Wind  
Wind Speed 6 mph (WNW)    
Max Wind Speed 10 mph    
Max Gust Speed -    
Visibility 10 miles    
Events Snow    
T = Trace of Precipitation, MM = Missing Value Source: NWS Daily Summary

Daily Weather History Graph

Daily Weather History Graph

Search for Another Location

Airport or City:

Trip Planner

Search our weather history database for the weather conditions in past years. The results will help you decide how hot, cold, wet, or windy it might be!

Date:

Astronomy

Mar. 04, 2013 Rise Set
Actual Time 6:51 AM EST 6:21 PM EST
Civil Twilight 6:25 AM EST 6:47 PM EST
Nautical Twilight 5:54 AM EST 7:18 PM EST
Astronomical Twilight 5:24 AM EST 7:48 PM EST
Moon 12:55 AM EST (3/4) 11:06 AM EST (3/4)
Length of Visible Light 12h 22m
Length of Day
11h 29m
Waning Gibbous, 52% of the Moon is Illuminated
Mar 4
Waning Gibbous
Mar 4
Last Quarter
Mar 11
New
Mar 19
First Quarter
Mar 27
Full

Hourly Weather History & Observations

Time (EST) Temp. Windchill Dew Point Humidity Pressure Visibility Wind Dir Wind Speed Gust Speed Precip Events Conditions
12:51 AM 19.9 °F 11.1 °F 15.1 °F 81% 30.09 in 10.0 mi NW 6.9 mph - 0.00 in   Overcast
1:18 AM 21.2 °F 11.7 °F 12.2 °F 68% 29.96 in 10.0 mi NW 8.1 mph - N/A   Overcast
1:44 AM 21.2 °F 9.5 °F 12.2 °F 68% 29.97 in 10.0 mi NW 11.5 mph - N/A   Overcast
1:51 AM 21.0 °F 10.6 °F 12.9 °F 71% 30.10 in 10.0 mi NW 9.2 mph - N/A   Overcast
2:08 AM 21.2 °F 10.9 °F 12.2 °F 68% 29.97 in 8.0 mi NW 9.2 mph - 0.00 in Snow Light Snow
2:51 AM 19.9 °F 10.1 °F 14.0 °F 78% 30.11 in 9.0 mi NNW 8.1 mph - 0.00 in   Overcast
3:51 AM 19.9 °F 11.1 °F 12.0 °F 71% 30.11 in 9.0 mi NW 6.9 mph - 0.00 in Snow Light Snow
4:51 AM 19.9 °F 10.1 °F 10.9 °F 68% 30.13 in 10.0 mi NW 8.1 mph - 0.00 in Snow Light Snow
5:51 AM 19.9 °F 9.3 °F 10.9 °F 68% 30.16 in 10.0 mi NW 9.2 mph - 0.00 in   Overcast
6:51 AM 19.0 °F 7.5 °F 10.0 °F 68% 30.17 in 10.0 mi NW 10.4 mph - N/A   Overcast
7:39 AM 19.4 °F 9.5 °F 8.6 °F 63% 30.05 in 10.0 mi NW 8.1 mph - N/A   Scattered Clouds
7:51 AM 19.0 °F 9.0 °F 9.0 °F 65% 30.19 in 10.0 mi WNW 8.1 mph - N/A   Clear
8:51 AM 21.0 °F 9.9 °F 10.0 °F 63% 30.20 in 10.0 mi West 10.4 mph - N/A   Partly Cloudy
9:51 AM 21.9 °F 12.5 °F 10.9 °F 63% 30.21 in 10.0 mi West 8.1 mph - N/A   Partly Cloudy
10:51 AM 25.0 °F 18.1 °F 10.9 °F 55% 30.20 in 10.0 mi Variable 5.8 mph - N/A   Clear
11:51 AM 27.0 °F 18.0 °F 12.0 °F 53% 30.18 in 10.0 mi West 9.2 mph - N/A   Clear
12:51 PM 30.0 °F 25.2 °F 12.9 °F 49% 30.16 in 10.0 mi WNW 4.6 mph - N/A   Clear
1:51 PM 30.9 °F 24.3 °F 12.0 °F 46% 30.13 in 10.0 mi Variable 6.9 mph - N/A   Clear
2:51 PM 33.1 °F 26.9 °F 10.9 °F 40% 30.12 in 10.0 mi West 6.9 mph - N/A   Clear
3:51 PM 35.1 °F 29.3 °F 9.0 °F 34% 30.11 in 10.0 mi West 6.9 mph - N/A   Clear
4:51 PM 36.0 °F 31.1 °F 12.0 °F 37% 30.10 in 10.0 mi West 5.8 mph - N/A   Clear
5:51 PM 37.0 °F - 12.0 °F 36% 30.09 in 10.0 mi Calm Calm - N/A   Clear
6:51 PM 34.0 °F 31.0 °F 12.0 °F 40% 30.12 in 10.0 mi WNW 3.5 mph - N/A   Clear
7:51 PM 30.0 °F - 15.1 °F 54% 30.14 in 10.0 mi Calm Calm - N/A   Clear
8:51 PM 27.0 °F - 15.1 °F 61% 30.14 in 10.0 mi Calm Calm - N/A   Scattered Clouds
9:51 PM 28.9 °F - 15.1 °F 56% 30.12 in 10.0 mi Calm Calm - N/A   Partly Cloudy
10:51 PM 30.9 °F - 17.1 °F 57% 30.10 in 10.0 mi Calm Calm - N/A   Overcast
11:51 PM 30.9 °F - 21.0 °F 67% 30.10 in 10.0 mi Calm Calm - 0.00 in   Overcast